Regional Weather Roundup
Issued by NWS Green Bay, WI

Home | Current Version | Previous Version | Text Only | Print | Product List | Glossary On
Versions: 1 2 3 4 5 6 7 8 9 10 11 12 13 14 15 16 17 18 19 20 21 22 23 24 25 26 27 28 29 30 31 32 33 34 35 36 37 38 39 40 41 42 43 44 45 46 47 48 49 50
000
ASUS43 KGRB 221000
RWRGRB

NORTH-CENTRAL AND NORTHEAST WISCONSIN REGIONAL WEATHER ROUNDUP
NATIONAL WEATHER SERVICE GREEN BAY WI
500 AM CDT WED MAR 22 2017

WIZ005-009-010>012-018-019-221100-
NORTH CENTRAL WISCONSIN

CITY           SKY/WX    TMP DP  RH WIND       PRES   REMARKS
IRONWOOD       CLEAR     10   8  92 CALM      30.54F
MANITOWISH WTR NOT AVBL
ARBOR VITAE    NOT AVBL
EAGLE RIVER    NOT AVBL
LAND O LAKES   NOT AVBL
RHINELANDER    CLEAR     11   6  81 CALM      30.50S
PHILLIPS       CLOUDY     9   6  88 CALM      30.51S
ANTIGO         NOT AVBL
TOMAHAWK       NOT AVBL
MERRILL        NOT AVBL
$$

WIZ013-073-221100-
NORTHEAST WISCONSIN

CITY           SKY/WX    TMP DP  RH WIND       PRES   REMARKS
IRON MOUNTAIN  CLEAR      8   1  73 N3        30.51F
MARINETTE        N/A    N/A N/A N/A MISG        N/A
$$

WIZ017-030-035>037-045-221100-
CENTRAL WISCONSIN

CITY           SKY/WX    TMP DP  RH WIND       PRES   REMARKS
MEDFORD        NOT AVBL
WAUSAU         CLEAR     16   7  67 N3        30.51S
MOSINEE        NOT AVBL
MARSHFIELD     CLEAR     18   5  57 NE5       30.50S
WISC RAPIDS    PTCLDY    15  10  80 CALM      30.54S
STEVENS POINT  NOT AVBL
WAUPACA        NOT AVBL
SHAWANO        PTCLDY    20   8  59 N5        30.56R
CLINTONVILLE   CLEAR     19   9  63 N3        30.55R
WAUTOMA        CLEAR     14   9  80 CALM      30.55S
$$

WIZ038-039-048-051-221100-
FOX VALLEY

CITY           SKY/WX    TMP DP  RH WIND       PRES   REMARKS
NWS GREEN BAY  PTCLDY    20  10  65 N9        30.55S WCI   9
APPLETON       NOT AVBL
OSHKOSH        CLEAR     20   6  55 N9        30.53S WCI   9
FOND DU LAC    CLEAR     23   4  44 NE15      30.53S
$$

WIZ022-050-052-221100-
EAST CENTRAL WISCONSIN

CITY           SKY/WX    TMP DP  RH WIND       PRES   REMARKS
EPHRAIM        NOT AVBL
WASHINGTON ISL NOT AVBL
STURGEON BAY   MOCLDY    21  10  62 NE12      30.55R WCI   9
MANITOWOC      NOT AVBL
SHEBOYGAN      CLEAR     22   6  50 N7        30.53R
$$

LMZ563-521-522-541>543-221100-
LAKESHORE

STATION/POSITION TIME  TEMP    WIND        PRES    VSBY  WAVE
                       AIR SEA DIR/SP/G                  HT/PER
                 (UTC) (F)     (DEG/KT/KT) (MB)    (MI)  (FT/S)
SHEBOYGAN LKSHOR 0900   24     360/ 19/ 22 1034.5R
KEWAUNEE LKSHORE 0930   21     360/  6/ 11 1033.7R
NORTHPORT PIER   0940   21      10/ 13/ 18 1034.2R
CHAMBERS ISLAND  0940   20     360/ 14/ 21 1033.9R
MENOMINEE LKSHOR 0930   21     350/ 13/ 16 1033.7R
$$




USA.gov is the U.S. government's official web portal to all federal, state and local government web resources and services.